#timestamp,LO_Frequency,Hit,StdDev 
1514422815.6,286046995.4,N
1514422835.5,286046996.1,N
1514422855.3,286046995.3,N
1514422875.1,286046996.0,N
1514422895.9,286046996.4,N
1514422915.7,286046995.2,N
1514422935.5,286046996.4,N
1514422955.4,286046993.7,Y
1514422975.2,286046997.6,P
1514422995.1,286046995.5,P
1514422996.0,286046995.5,P
1514423015.8,286046995.4,Y
1514423035.6,286046999.2,P
1514423055.5,286046999.2,N
1514423075.3,286046999.2,N
1514423095.2,286046998.4,N
1514423115.9,286046999.3,N
1514423135.7,286046996.9,Y
1514423155.6,286046998.7,P
1514423175.4,286046998.7,P
1514423195.3,286046998.7,P
1514423215.1,286047000.9,Y
1514423216.0,286047000.9,P
1514423235.8,286047000.2,N
1514423255.7,286047000.5,N
1514423275.5,286047002.4,N
1514423295.3,286047002.8,N
1514423315.2,286047001.9,N
1514423335.0,286047000.2,N
1514423335.9,286047000.2,N
1514423355.8,286047001.0,N
1514423375.6,286047000.6,N
1514423395.4,286046998.1,N
1514423415.3,286047000.7,N
1514423435.1,286047002.8,N
1514423455.9,286047002.1,N
1514423475.7,286047002.7,N
1514423495.5,286047000.7,N
1514423515.4,286047000.6,N
1514423535.2,286047000.7,N
1514423555.1,286046998.8,N
1514423556.0,286046998.8,N
1514423575.8,286047001.1,N
1514423595.6,286046998.5,N
1514423615.5,286047001.2,N
1514423635.3,286046998.3,N
1514423655.2,286046998.1,N
1514423675.9,286046999.0,N
1514423695.7,286046995.5,Y
1514423715.6,286046997.2,P
1514423735.4,286046999.6,N
1514423755.2,286046997.1,N
1514423775.1,286046997.0,N
1514423776.0,286046997.0,N
1514423795.8,286046996.5,N
1514423815.7,286046994.9,Y
1514423835.5,286046998.9,P
1514423855.3,286046999.6,N
1514423875.2,286046998.6,N
1514423895.0,286046999.4,N
1514423895.9,286046999.4,N
1514423915.8,286046999.4,N
1514423935.6,286046999.1,N
1514423955.4,286046996.7,Y
1514423975.3,286047000.7,P
1514423995.1,286046998.4,N
1514424015.8,286047000.2,N
1514424035.7,286047002.7,N
1514424055.5,286047000.5,N
1514424075.4,286046998.2,N
1514424095.2,286046999.3,N
1514424115.0,286046999.1,N
1514424115.9,286046999.1,N
1514424135.8,286046999.2,N
1514424155.6,286046998.4,N
1514424175.4,286046998.2,N
1514424195.3,286047001.0,N
1514424215.1,286047000.8,N
1514424265.9,286046998.4,E
1514424275.8,286047001.1,N
1514424295.6,286046998.7,P
1514424315.5,286047000.5,N
1514424335.3,286047000.3,N
1514424355.2,286047002.8,Y
1514424375.9,286047000.2,P
1514424395.7,286046999.7,P
1514424415.6,286046998.3,P
1514424435.4,286047001.2,N
1514424455.3,286047000.3,N
1514424475.1,286047000.7,N
1514424476.0,286047000.7,N
1514424495.8,286047001.0,N
1514424515.7,286047000.8,N
1514424535.5,286047000.0,N
1514424555.3,286047002.6,Y
1514424575.2,286047002.7,P
1514424595.0,286047000.9,N
1514424595.9,286047000.9,N
1514424615.8,286047000.1,N
1514424635.6,286047002.0,N
1514424655.4,286047001.6,N
1514424675.3,286047003.8,Y
1514424695.1,286046999.9,P
1514424715.8,286047002.3,P
1514424735.7,286047001.9,N
1514424755.5,286047001.9,N
1514424775.4,286047002.2,N
1514424795.2,286047002.5,Y
1514424815.0,286047000.4,P
1514424815.9,286047000.4,N
1514424835.8,286046998.5,N
1514424855.6,286047002.6,N
1514424875.5,286047000.3,N
1514424895.3,286046999.9,N
1514424915.1,286047000.7,N
1514424935.9,286047002.8,N
1514424955.7,286047001.0,N
1514424975.5,286047000.6,N
1514424995.4,286046998.1,N
1514425015.2,286047000.5,N
1514425035.0,286046999.6,N
1514425036.0,286046999.6,N
1514425055.8,286047000.7,N
1514425075.6,286047000.8,N
1514425095.5,286046998.1,N
1514425115.3,286047002.8,N
1514425135.1,286046998.8,N
1514425155.9,286046997.0,N
1514425175.7,286046999.0,N
1514425195.5,286046998.1,N
1514425215.4,286047000.3,N
1514425235.2,286047000.2,N
1514425255.1,286047002.7,N
1514425256.0,286047002.7,N
1514425275.8,286047000.1,N
1514425295.6,286047000.9,N
1514425315.5,286047000.0,N
1514425335.3,286047000.3,N
1514425355.2,286047002.3,N
1514425375.9,286047000.0,N
1514425395.7,286046998.6,N
1514425415.6,286047001.0,N
1514425435.4,286047000.0,N
1514425455.3,286047000.7,N
1514425475.1,286047001.1,N
1514425476.0,286047001.1,N
1514425495.8,286047000.4,N
1514425515.7,286047000.7,N
1514425535.5,286047000.2,N
1514425555.3,286047001.4,N
1514425575.2,286046999.7,N
1514425595.0,286047002.3,N
1514425595.9,286047002.3,N
1514425615.8,286046999.9,N
1514425635.6,286046999.9,N
1514425655.4,286046998.4,N
1514425675.3,286047001.1,N
1514425695.1,286047001.1,N
1514425715.8,286047000.5,N
1514425735.7,286047000.6,N
1514425755.5,286047002.3,N
1514425775.4,286047001.7,N
1514425795.2,286047001.9,N
1514425815.0,286047002.5,N
1514425815.9,286047002.5,N
1514425835.8,286047001.6,N
1514425855.6,286047002.0,N
1514425875.5,286047002.6,N
1514425895.3,286047004.4,Y
1514425915.1,286047002.1,P
1514425935.9,286047002.3,P
1514425955.7,286047002.3,P
1514425975.5,286047002.6,Y
1514425995.4,286047001.0,P
1514426015.2,286046998.9,N
1514426035.1,286046999.2,N
1514426036.0,286046999.2,N
1514426055.8,286046999.1,N
1514426075.6,286046996.6,N
1514426095.5,286046997.3,N
1514426115.3,286046999.1,N
1514426135.1,286047001.2,N
1514426155.9,286047000.8,N
1514426175.7,286047000.4,N
1514426195.6,286047000.2,N
1514426215.4,286047001.2,N
1514426235.2,286047000.7,N
1514426255.1,286046998.8,N
1514426256.0,286046998.8,N
1514426275.8,286046996.5,N
1514426295.7,286046996.6,N
1514426315.5,286046997.1,N
1514426335.3,286046999.1,N
1514426355.2,286046998.7,N
1514426375.9,286046999.0,N
1514426395.7,286047000.2,N
